Time,TemperatureF,DewpointF,PressureIn,WindDirection,WindDirectionDegrees,WindSpeedMPH,WindSpeedGustMPH,Humidity,HourlyPrecipIn,Conditions,Clouds,dailyrainin,SoftwareType,DateUTC
2013-03-30 00:00:00,39.7,22.2,27.61,West,278,2.2,2.2,49,0.00,,---,0.00,VWS V14.01,2013-03-30 04:00:00,
2013-03-30 00:05:00,39.7,22.2,27.61,West,278,0.0,0.0,49,0.00,,---,0.00,VWS V14.01,2013-03-30 04:05:00,
2013-03-30 00:10:00,39.7,22.2,27.61,West,277,0.0,0.0,49,0.00,,---,0.00,VWS V14.01,2013-03-30 04:10:00,
2013-03-30 00:15:00,39.7,22.2,27.61,West,278,0.0,0.0,49,0.00,,---,0.00,VWS V14.01,2013-03-30 04:15:00,
2013-03-30 00:20:00,39.7,22.2,27.61,West,278,0.0,0.0,49,0.00,,---,0.00,VWS V14.01,2013-03-30 04:20:00,
2013-03-30 00:25:00,39.7,22.2,27.61,West,278,0.0,0.0,49,0.00,,---,0.00,VWS V14.01,2013-03-30 04:25:00,
2013-03-30 00:30:00,39.7,22.2,27.61,West,278,0.0,0.0,49,0.00,,---,0.00,VWS V14.01,2013-03-30 04:30:00,
2013-03-30 00:35:00,39.7,22.6,27.61,West,277,0.0,0.0,50,0.00,,---,0.00,VWS V14.01,2013-03-30 04:35:00,
2013-03-30 00:40:00,39.7,22.6,27.61,West,278,0.0,0.0,50,0.00,,---,0.00,VWS V14.01,2013-03-30 04:40:00,
2013-03-30 00:45:00,39.7,22.6,27.61,West,278,0.0,0.0,50,0.00,,---,0.00,VWS V14.01,2013-03-30 04:45:00,
2013-03-30 00:50:00,39.7,22.6,27.61,West,278,0.0,0.0,50,0.00,,---,0.00,VWS V14.01,2013-03-30 04:50:00,
2013-03-30 00:55:00,39.7,22.6,27.61,West,278,0.0,0.0,50,0.04,,---,0.04,VWS V14.01,2013-03-30 04:55:00,
2013-03-30 01:00:00,39.7,22.6,27.61,SE,139,2.7,2.7,50,0.04,,---,0.04,VWS V14.01,2013-03-30 05:00:00,
2013-03-30 01:05:00,39.7,23.1,27.61,SSE,152,0.0,0.0,51,0.04,,---,0.04,VWS V14.01,2013-03-30 05:05:00,
2013-03-30 01:10:00,39.9,23.3,27.61,SE,139,0.0,0.0,51,0.04,,---,0.04,VWS V14.01,2013-03-30 05:10:00,
2013-03-30 01:15:00,39.9,23.3,27.61,SE,129,0.0,0.0,51,0.04,,---,0.04,VWS V14.01,2013-03-30 05:15:00,
2013-03-30 01:20:00,39.9,23.3,27.61,SE,125,2.2,2.2,51,0.04,,---,0.04,VWS V14.01,2013-03-30 05:20:00,
2013-03-30 01:25:00,39.9,23.3,27.61,SSE,159,0.0,0.0,51,0.04,,---,0.04,VWS V14.01,2013-03-30 05:25:00,
2013-03-30 01:30:00,39.9,23.3,27.61,WNW,290,0.0,0.0,51,0.04,,---,0.04,VWS V14.01,2013-03-30 05:30:00,
2013-03-30 01:35:00,39.9,23.3,27.61,WSW,247,0.0,0.0,51,0.04,,---,0.04,VWS V14.01,2013-03-30 05:35:00,
2013-03-30 01:40:00,39.9,23.3,27.61,WSW,247,0.0,0.0,51,0.04,,---,0.04,VWS V14.01,2013-03-30 05:40:00,
2013-03-30 01:45:00,39.9,23.3,27.61,WSW,247,0.0,0.0,51,0.08,,---,0.08,VWS V14.01,2013-03-30 05:45:00,
2013-03-30 01:50:00,39.9,23.3,27.61,WSW,247,0.0,0.0,51,0.08,,---,0.08,VWS V14.01,2013-03-30 05:50:00,
2013-03-30 01:55:00,39.9,23.7,27.61,WSW,247,0.0,0.0,52,0.04,,---,0.08,VWS V14.01,2013-03-30 05:55:00,
2013-03-30 02:00:00,39.9,23.7,27.61,WSW,247,0.0,0.0,52,0.04,,---,0.08,VWS V14.01,2013-03-30 06:00:00,
2013-03-30 02:05:00,39.9,23.7,27.61,WSW,247,0.0,0.0,52,0.04,,---,0.08,VWS V14.01,2013-03-30 06:05:00,
2013-03-30 02:10:00,39.9,23.7,27.61,WSW,247,0.0,0.0,52,0.04,,---,0.08,VWS V14.01,2013-03-30 06:10:00,
2013-03-30 02:15:00,39.9,23.7,27.61,WSW,247,0.0,0.0,52,0.04,,---,0.08,VWS V14.01,2013-03-30 06:15:00,
2013-03-30 02:20:00,39.9,23.7,27.61,WSW,247,0.0,0.0,52,0.04,,---,0.08,VWS V14.01,2013-03-30 06:20:00,
2013-03-30 02:25:00,39.9,23.7,27.61,WSW,247,0.0,0.0,52,0.04,,---,0.08,VWS V14.01,2013-03-30 06:25:00,
2013-03-30 02:30:00,39.9,23.7,27.61,WSW,247,0.0,0.0,52,0.04,,---,0.08,VWS V14.01,2013-03-30 06:30:00,
2013-03-30 02:35:00,39.9,24.2,27.61,WSW,247,0.0,0.0,53,0.04,,---,0.08,VWS V14.01,2013-03-30 06:35:00,
2013-03-30 02:40:00,39.9,24.2,27.58,WSW,247,0.0,0.0,53,0.04,,---,0.08,VWS V14.01,2013-03-30 06:40:00,
2013-03-30 02:45:00,39.9,24.2,27.58,WSW,247,0.0,0.0,53,0.00,,---,0.08,VWS V14.01,2013-03-30 06:45:00,
2013-03-30 02:50:00,39.9,24.2,27.58,South,189,0.0,0.0,53,0.00,,---,0.08,VWS V14.01,2013-03-30 06:50:00,
2013-03-30 02:55:00,40.1,24.4,27.58,SW,223,0.0,0.0,53,0.00,,---,0.08,VWS V14.01,2013-03-30 06:55:00,
2013-03-30 03:00:00,40.1,24.4,27.58,SW,223,0.0,0.0,53,0.00,,---,0.08,VWS V14.01,2013-03-30 07:00:00,
2013-03-30 03:05:00,40.1,24.4,27.58,West,262,0.0,2.2,53,0.00,,---,0.08,VWS V14.01,2013-03-30 07:05:00,
2013-03-30 03:10:00,40.1,24.4,27.58,West,265,0.0,0.0,53,0.00,,---,0.08,VWS V14.01,2013-03-30 07:10:00,
2013-03-30 03:15:00,40.1,24.4,27.58,West,265,0.0,0.0,53,0.00,,---,0.08,VWS V14.01,2013-03-30 07:15:00,
2013-03-30 03:20:00,40.1,24.8,27.58,West,262,2.7,2.7,54,0.00,,---,0.08,VWS V14.01,2013-03-30 07:20:00,
2013-03-30 03:25:00,40.1,24.8,27.58,West,262,0.0,0.0,54,0.00,,---,0.08,VWS V14.01,2013-03-30 07:25:00,
2013-03-30 03:30:00,40.1,24.8,27.58,West,263,0.0,0.0,54,0.00,,---,0.08,VWS V14.01,2013-03-30 07:30:00,
2013-03-30 03:35:00,40.3,25.0,27.58,West,265,0.0,0.0,54,0.00,,---,0.08,VWS V14.01,2013-03-30 07:35:00,
2013-03-30 03:40:00,40.3,25.0,27.58,West,265,0.0,0.0,54,0.00,,---,0.08,VWS V14.01,2013-03-30 07:40:00,
2013-03-30 03:45:00,40.3,25.4,27.58,West,265,0.0,0.0,55,0.00,,---,0.08,VWS V14.01,2013-03-30 07:45:00,
2013-03-30 03:50:00,40.3,25.4,27.58,West,265,0.0,0.0,55,0.00,,---,0.08,VWS V14.01,2013-03-30 07:50:00,
2013-03-30 03:55:00,40.3,25.4,27.58,West,265,0.0,0.0,55,0.00,,---,0.08,VWS V14.01,2013-03-30 07:55:00,
2013-03-30 04:00:00,40.3,25.4,27.58,West,265,0.0,0.0,55,0.00,,---,0.08,VWS V14.01,2013-03-30 08:00:00,
2013-03-30 04:05:00,40.5,25.6,27.58,West,265,0.0,0.0,55,0.00,,---,0.08,VWS V14.01,2013-03-30 08:05:00,
2013-03-30 04:10:00,40.5,25.6,27.58,West,265,0.0,0.0,55,0.04,,---,0.12,VWS V14.01,2013-03-30 08:10:00,
2013-03-30 04:15:00,40.5,25.6,27.58,West,265,0.0,0.0,55,0.04,,---,0.12,VWS V14.01,2013-03-30 08:15:00,
2013-03-30 04:20:00,40.5,25.6,27.58,West,265,0.0,0.0,55,0.04,,---,0.12,VWS V14.01,2013-03-30 08:20:00,
2013-03-30 04:25:00,40.3,25.4,27.58,West,265,0.0,0.0,55,0.04,,---,0.12,VWS V14.01,2013-03-30 08:25:00,
2013-03-30 04:30:00,40.3,25.9,27.58,West,264,0.0,0.0,56,0.04,,---,0.12,VWS V14.01,2013-03-30 08:30:00,
2013-03-30 04:35:00,40.5,26.0,27.58,West,264,0.0,0.0,56,0.04,,---,0.12,VWS V14.01,2013-03-30 08:35:00,
2013-03-30 04:40:00,40.5,26.0,27.58,West,264,0.0,0.0,56,0.04,,---,0.12,VWS V14.01,2013-03-30 08:40:00,
2013-03-30 04:45:00,40.5,26.0,27.58,West,264,0.0,0.0,56,0.04,,---,0.12,VWS V14.01,2013-03-30 08:45:00,
2013-03-30 04:50:00,40.5,26.0,27.58,West,264,0.0,0.0,56,0.04,,---,0.12,VWS V14.01,2013-03-30 08:50:00,
2013-03-30 04:55:00,40.5,26.4,27.58,West,264,0.0,0.0,57,0.04,,---,0.12,VWS V14.01,2013-03-30 08:55:00,
2013-03-30 05:00:00,40.5,26.4,27.58,West,264,0.0,0.0,57,0.04,,---,0.12,VWS V14.01,2013-03-30 09:00:00,
2013-03-30 05:05:00,40.5,26.4,27.58,West,264,0.0,0.0,57,0.04,,---,0.12,VWS V14.01,2013-03-30 09:05:00,
2013-03-30 05:10:00,40.5,26.4,27.58,West,264,0.0,0.0,57,0.00,,---,0.12,VWS V14.01,2013-03-30 09:10:00,
2013-03-30 05:15:00,40.5,26.4,27.58,West,264,0.0,0.0,57,0.00,,---,0.12,VWS V14.01,2013-03-30 09:15:00,
2013-03-30 05:20:00,40.5,26.4,27.58,West,264,0.0,0.0,57,0.00,,---,0.12,VWS V14.01,2013-03-30 09:20:00,
2013-03-30 05:25:00,40.5,26.4,27.58,West,264,0.0,0.0,57,0.00,,---,0.12,VWS V14.01,2013-03-30 09:25:00,
2013-03-30 05:30:00,40.5,26.9,27.58,West,264,0.0,0.0,58,0.00,,---,0.12,VWS V14.01,2013-03-30 09:30:00,
2013-03-30 05:34:00,40.5,26.9,27.58,West,264,0.0,0.0,58,0.00,,---,0.12,VWS V14.01,2013-03-30 09:34:00,
2013-03-30 05:39:00,40.5,26.9,27.58,West,264,0.0,0.0,58,0.00,,---,0.12,VWS V14.01,2013-03-30 09:39:00,
2013-03-30 05:44:00,40.5,26.9,27.58,West,264,0.0,0.0,58,0.00,,---,0.12,VWS V14.01,2013-03-30 09:44:00,
2013-03-30 05:49:00,40.5,26.9,27.58,West,264,0.0,0.0,58,0.00,,---,0.12,VWS V14.01,2013-03-30 09:49:00,
2013-03-30 05:54:00,40.5,26.9,27.58,West,264,0.0,0.0,58,0.00,,---,0.12,VWS V14.01,2013-03-30 09:54:00,
2013-03-30 05:59:00,40.5,27.3,27.58,West,264,0.0,0.0,59,0.00,,---,0.12,VWS V14.01,2013-03-30 09:59:00,
2013-03-30 06:04:00,40.6,27.5,27.58,West,264,0.0,0.0,59,0.00,,---,0.12,VWS V14.01,2013-03-30 10:04:00,
2013-03-30 06:09:00,40.6,27.5,27.58,West,264,0.0,0.0,59,0.00,,---,0.12,VWS V14.01,2013-03-30 10:09:00,
2013-03-30 06:14:00,40.6,27.5,27.58,West,264,0.0,0.0,59,0.00,,---,0.12,VWS V14.01,2013-03-30 10:14:00,
2013-03-30 06:19:00,40.6,27.5,27.58,West,264,0.0,0.0,59,0.00,,---,0.12,VWS V14.01,2013-03-30 10:19:00,
2013-03-30 06:24:00,40.6,27.5,27.58,West,264,0.0,0.0,59,0.00,,---,0.12,VWS V14.01,2013-03-30 10:24:00,
2013-03-30 06:29:00,40.6,27.5,27.58,West,264,0.0,0.0,59,0.00,,---,0.12,VWS V14.01,2013-03-30 10:29:00,
2013-03-30 06:34:00,40.6,27.9,27.58,West,264,0.0,0.0,60,0.00,,---,0.12,VWS V14.01,2013-03-30 10:34:00,
2013-03-30 06:39:00,40.6,27.9,27.58,West,264,0.0,0.0,60,0.00,,---,0.12,VWS V14.01,2013-03-30 10:39:00,
2013-03-30 06:44:00,40.6,27.9,27.58,West,264,0.0,0.0,60,0.00,,---,0.12,VWS V14.01,2013-03-30 10:44:00,
2013-03-30 06:49:00,40.6,27.9,27.58,West,264,0.0,0.0,60,0.00,,---,0.12,VWS V14.01,2013-03-30 10:49:00,
2013-03-30 06:54:00,40.6,27.9,27.58,West,264,0.0,0.0,60,0.00,,---,0.12,VWS V14.01,2013-03-30 10:54:00,
2013-03-30 06:59:00,40.6,27.9,27.58,West,264,0.0,0.0,60,0.00,,---,0.12,VWS V14.01,2013-03-30 10:59:00,
2013-03-30 07:04:00,40.6,27.9,27.58,West,264,0.0,0.0,60,0.00,,---,0.12,VWS V14.01,2013-03-30 11:04:00,
2013-03-30 07:09:00,40.6,28.3,27.58,West,264,0.0,0.0,61,0.04,,---,0.16,VWS V14.01,2013-03-30 11:09:00,
2013-03-30 07:14:00,40.6,28.3,27.58,West,264,0.0,0.0,61,0.04,,---,0.16,VWS V14.01,2013-03-30 11:14:00,
2013-03-30 07:19:00,40.6,28.3,27.58,West,264,0.0,0.0,61,0.04,,---,0.16,VWS V14.01,2013-03-30 11:19:00,
2013-03-30 07:24:00,40.6,28.3,27.58,West,264,0.0,0.0,61,0.04,,---,0.16,VWS V14.01,2013-03-30 11:24:00,
2013-03-30 07:29:00,40.6,28.3,27.58,West,264,0.0,0.0,61,0.04,,---,0.16,VWS V14.01,2013-03-30 11:29:00,
2013-03-30 07:34:00,40.6,28.3,27.58,West,264,0.0,0.0,61,0.04,,---,0.16,VWS V14.01,2013-03-30 11:34:00,
2013-03-30 07:39:00,40.8,28.4,27.58,West,264,0.0,0.0,61,0.04,,---,0.16,VWS V14.01,2013-03-30 11:39:00,
2013-03-30 07:44:00,40.8,28.8,27.58,West,264,0.0,0.0,62,0.04,,---,0.16,VWS V14.01,2013-03-30 11:44:00,
2013-03-30 07:49:00,40.8,28.8,27.58,West,264,0.0,0.0,62,0.04,,---,0.16,VWS V14.01,2013-03-30 11:49:00,
2013-03-30 07:54:00,41.0,29.0,27.58,West,264,0.0,0.0,62,0.04,,---,0.16,VWS V14.01,2013-03-30 11:54:00,
2013-03-30 07:59:00,41.0,29.0,27.58,West,264,0.0,0.0,62,0.04,,---,0.16,VWS V14.01,2013-03-30 11:59:00,
2013-03-30 08:04:00,41.2,29.2,27.58,West,264,0.0,0.0,62,0.04,,---,0.16,VWS V14.01,2013-03-30 12:04:00,
2013-03-30 08:09:00,41.4,29.7,27.58,West,264,0.0,0.0,63,0.00,,---,0.16,VWS V14.01,2013-03-30 12:09:00,
2013-03-30 08:14:00,41.5,29.9,27.58,West,264,0.0,0.0,63,0.00,,---,0.16,VWS V14.01,2013-03-30 12:14:00,
2013-03-30 08:19:00,41.7,30.1,27.58,West,264,0.0,0.0,63,0.00,,---,0.16,VWS V14.01,2013-03-30 12:19:00,
2013-03-30 08:24:00,41.9,30.2,27.58,West,264,0.0,0.0,63,0.00,,---,0.16,VWS V14.01,2013-03-30 12:24:00,
2013-03-30 08:29:00,42.1,30.8,27.58,West,264,0.0,0.0,64,0.00,,---,0.16,VWS V14.01,2013-03-30 12:29:00,
2013-03-30 08:34:00,42.3,31.0,27.58,West,264,0.0,0.0,64,0.00,,---,0.16,VWS V14.01,2013-03-30 12:34:00,
2013-03-30 08:39:00,42.6,31.7,27.58,West,264,0.0,0.0,65,0.00,,---,0.16,VWS V14.01,2013-03-30 12:39:00,
2013-03-30 08:44:00,43.2,32.2,27.58,West,264,0.0,0.0,65,0.00,,---,0.16,VWS V14.01,2013-03-30 12:44:00,
2013-03-30 08:49:00,43.7,33.1,27.58,West,264,0.0,0.0,66,0.00,,---,0.16,VWS V14.01,2013-03-30 12:49:00,
2013-03-30 08:54:00,44.1,33.1,27.58,West,264,0.0,0.0,65,0.00,,---,0.16,VWS V14.01,2013-03-30 12:54:00,
2013-03-30 08:59:00,44.2,33.2,27.58,West,264,0.0,0.0,65,0.00,,---,0.16,VWS V14.01,2013-03-30 12:59:00,
2013-03-30 09:04:00,44.6,33.6,27.58,West,264,0.0,0.0,65,0.00,,---,0.16,VWS V14.01,2013-03-30 13:04:00,
2013-03-30 09:09:00,45.1,34.1,27.58,West,264,0.0,0.0,65,0.00,,---,0.16,VWS V14.01,2013-03-30 13:09:00,
2013-03-30 09:14:00,45.3,34.3,27.58,West,264,0.0,0.0,65,0.00,,---,0.16,VWS V14.01,2013-03-30 13:14:00,
2013-03-30 09:19:00,45.5,34.4,27.58,West,264,0.0,0.0,65,0.00,,---,0.16,VWS V14.01,2013-03-30 13:19:00,
2013-03-30 09:24:00,45.9,34.8,27.58,West,259,0.0,0.0,65,0.00,,---,0.16,VWS V14.01,2013-03-30 13:24:00,
2013-03-30 09:29:00,46.2,35.1,27.58,SSE,162,0.0,0.0,65,0.00,,---,0.16,VWS V14.01,2013-03-30 13:29:00,
2013-03-30 09:34:00,46.6,35.5,27.58,SSE,151,0.0,0.0,65,0.00,,---,0.16,VWS V14.01,2013-03-30 13:34:00,
2013-03-30 09:39:00,46.9,35.8,27.58,SSE,151,0.0,0.0,65,0.00,,---,0.16,VWS V14.01,2013-03-30 13:39:00,
2013-03-30 09:44:00,47.3,36.2,27.58,SSE,156,0.0,0.0,65,0.00,,---,0.16,VWS V14.01,2013-03-30 13:44:00,
2013-03-30 09:49:00,47.8,35.9,27.58,SSW,200,0.0,0.0,63,0.00,,---,0.16,VWS V14.01,2013-03-30 13:49:00,
2013-03-30 09:54:00,48.2,35.8,27.58,SSW,200,0.0,0.0,62,0.00,,---,0.16,VWS V14.01,2013-03-30 13:54:00,
2013-03-30 09:59:00,48.2,35.0,27.58,SE,142,0.0,0.0,60,0.00,,---,0.16,VWS V14.01,2013-03-30 13:59:00,
2013-03-30 10:04:00,48.2,34.6,27.58,SE,134,2.2,2.7,59,0.00,,---,0.16,VWS V14.01,2013-03-30 14:04:00,
2013-03-30 10:09:00,48.6,34.9,27.58,East,89,3.6,3.6,59,0.00,,---,0.16,VWS V14.01,2013-03-30 14:09:00,
2013-03-30 10:14:00,48.9,34.4,27.58,SE,126,0.0,3.6,57,0.00,,---,0.16,VWS V14.01,2013-03-30 14:14:00,
2013-03-30 10:19:00,49.3,34.3,27.58,ESE,103,4.0,4.0,56,0.00,,---,0.16,VWS V14.01,2013-03-30 14:19:00,
2013-03-30 10:24:00,49.8,34.3,27.58,ESE,113,4.5,4.5,55,0.00,,---,0.16,VWS V14.01,2013-03-30 14:24:00,
2013-03-30 10:29:00,50.5,34.1,27.58,East,97,0.0,0.0,53,0.00,,---,0.16,VWS V14.01,2013-03-30 14:29:00,
2013-03-30 10:34:00,51.1,33.6,27.58,SE,141,3.1,3.1,51,0.00,,---,0.16,VWS V14.01,2013-03-30 14:34:00,
2013-03-30 10:39:00,51.6,33.6,27.58,SE,128,4.0,4.0,50,0.00,,---,0.16,VWS V14.01,2013-03-30 14:39:00,
2013-03-30 10:44:00,52.3,32.7,27.58,East,83,0.0,3.1,47,0.00,,---,0.16,VWS V14.01,2013-03-30 14:44:00,
2013-03-30 10:49:00,52.3,31.6,27.58,ENE,64,2.2,2.2,45,0.00,,---,0.16,VWS V14.01,2013-03-30 14:49:00,
2013-03-30 10:54:00,52.2,29.2,27.58,SE,126,2.7,2.7,41,0.00,,---,0.16,VWS V14.01,2013-03-30 14:54:00,
2013-03-30 10:59:00,52.2,28.6,27.58,ESE,120,3.1,3.1,40,0.00,,---,0.16,VWS V14.01,2013-03-30 14:59:00,
2013-03-30 11:04:00,52.3,26.9,27.58,WSW,240,0.0,0.0,37,0.00,,---,0.16,VWS V14.01,2013-03-30 15:04:00,
2013-03-30 11:09:00,52.5,27.0,27.58,ESE,120,2.2,2.7,37,0.00,,---,0.16,VWS V14.01,2013-03-30 15:09:00,
2013-03-30 11:14:00,53.1,27.5,27.58,ESE,113,3.1,3.1,37,0.00,,---,0.16,VWS V14.01,2013-03-30 15:14:00,
2013-03-30 11:19:00,53.8,26.8,27.58,East,98,4.9,4.9,35,0.00,,---,0.16,VWS V14.01,2013-03-30 15:19:00,
2013-03-30 11:24:00,54.3,26.6,27.58,ESE,122,4.9,4.9,34,0.00,,---,0.16,VWS V14.01,2013-03-30 15:24:00,
2013-03-30 11:29:00,54.5,23.7,27.58,SE,131,3.1,3.1,30,0.00,,---,0.16,VWS V14.01,2013-03-30 15:29:00,
2013-03-30 11:34:00,54.5,22.1,27.58,SSE,147,0.0,3.1,28,0.00,,---,0.16,VWS V14.01,2013-03-30 15:34:00,
2013-03-30 11:39:00,54.3,20.2,27.58,SW,229,2.2,2.2,26,0.00,,---,0.16,VWS V14.01,2013-03-30 15:39:00,
2013-03-30 11:44:00,53.8,16.9,27.58,NW,311,0.0,0.0,23,0.00,,---,0.16,VWS V14.01,2013-03-30 15:44:00,
2013-03-30 11:49:00,53.8,16.9,27.58,WSW,246,2.2,2.2,23,0.00,,---,0.16,VWS V14.01,2013-03-30 15:49:00,
2013-03-30 11:54:00,54.3,17.3,27.58,ESE,122,3.6,3.6,23,0.00,,---,0.16,VWS V14.01,2013-03-30 15:54:00,
2013-03-30 11:59:00,55.4,15.0,27.58,SE,130,4.5,4.5,20,0.00,,---,0.16,VWS V14.01,2013-03-30 15:59:00,
2013-03-30 12:04:00,55.9,11.8,27.58,ESE,122,3.6,4.0,17,0.00,,---,0.16,VWS V14.01,2013-03-30 16:04:00,
2013-03-30 12:09:00,55.9,9.0,27.58,SE,140,0.0,0.0,15,0.00,,---,0.16,VWS V14.01,2013-03-30 16:09:00,
2013-03-30 12:14:00,55.6,3.8,27.58,SE,131,4.0,4.9,12,0.00,,---,0.16,VWS V14.01,2013-03-30 16:14:00,
2013-03-30 12:19:00,55.4,3.7,27.58,NE,44,2.7,3.1,12,0.00,,---,0.16,VWS V14.01,2013-03-30 16:19:00,
2013-03-30 12:24:00,55.4,3.7,27.55,SW,221,0.0,2.2,12,0.00,,---,0.16,VWS V14.01,2013-03-30 16:24:00,
2013-03-30 12:29:00,55.4,-0.3,27.55,East,101,0.0,0.0,10,0.00,,---,0.16,VWS V14.01,2013-03-30 16:29:00,
2013-03-30 12:34:00,55.4,-0.3,27.55,ESE,116,2.2,2.2,10,0.00,,---,0.16,VWS V14.01,2013-03-30 16:34:00,
2013-03-30 12:39:00,55.6,-0.1,27.55,ESE,116,0.0,0.0,10,0.00,,---,0.16,VWS V14.01,2013-03-30 16:39:00,
2013-03-30 12:44:00,55.6,-0.1,27.55,ESE,117,3.1,3.1,10,0.00,,---,0.16,VWS V14.01,2013-03-30 16:44:00,
2013-03-30 12:49:00,55.8,0.0,27.55,ESE,112,2.7,2.7,10,0.00,,---,0.16,VWS V14.01,2013-03-30 16:49:00,
2013-03-30 12:54:00,55.8,0.0,27.55,East,79,3.6,3.6,10,0.00,,---,0.16,VWS V14.01,2013-03-30 16:54:00,
2013-03-30 12:59:00,56.3,0.4,27.55,East,86,2.7,3.1,10,0.00,,---,0.16,VWS V14.01,2013-03-30 16:59:00,
2013-03-30 13:04:00,56.3,0.4,27.55,East,86,3.1,4.0,10,0.00,,---,0.16,VWS V14.01,2013-03-30 17:04:00,
2013-03-30 13:09:00,56.3,0.4,27.55,NE,52,0.0,3.6,10,0.00,,---,0.16,VWS V14.01,2013-03-30 17:09:00,
2013-03-30 13:14:00,56.3,-7.0,27.55,SE,127,2.7,3.6,7,0.00,,---,0.16,VWS V14.01,2013-03-30 17:14:00,
2013-03-30 13:19:00,56.8,-6.6,27.55,SSE,147,0.0,0.0,7,0.00,,---,0.16,VWS V14.01,2013-03-30 17:19:00,
2013-03-30 13:24:00,57.4,-6.2,27.55,ESE,123,2.7,2.7,7,0.00,,---,0.16,VWS V14.01,2013-03-30 17:24:00,
2013-03-30 13:29:00,57.7,-5.9,27.55,ENE,58,2.7,3.6,7,0.00,,---,0.16,VWS V14.01,2013-03-30 17:29:00,
2013-03-30 13:34:00,57.4,-6.2,27.55,ENE,77,0.0,0.0,7,0.00,,---,0.16,VWS V14.01,2013-03-30 17:34:00,
2013-03-30 13:39:00,57.0,-6.5,27.55,NE,45,2.2,2.2,7,0.00,,---,0.16,VWS V14.01,2013-03-30 17:39:00,
2013-03-30 13:44:00,56.8,-6.6,27.55,WSW,246,0.0,2.2,7,0.00,,---,0.16,VWS V14.01,2013-03-30 17:44:00,
2013-03-30 13:49:00,57.0,-6.5,27.55,East,95,3.6,4.5,7,0.00,,---,0.16,VWS V14.01,2013-03-30 17:49:00,
2013-03-30 13:54:00,57.4,-6.2,27.52,East,99,2.7,3.1,7,0.00,,---,0.16,VWS V14.01,2013-03-30 17:54:00,
2013-03-30 13:59:00,57.6,-6.1,27.52,NNE,12,0.0,2.7,7,0.00,,---,0.16,VWS V14.01,2013-03-30 17:59:00,
2013-03-30 14:04:00,57.4,-6.2,27.52,NE,50,3.1,3.6,7,0.00,,---,0.16,VWS V14.01,2013-03-30 18:04:00,
2013-03-30 14:09:00,57.0,-6.5,27.52,NE,50,2.2,3.1,7,0.00,,---,0.16,VWS V14.01,2013-03-30 18:09:00,
2013-03-30 14:14:00,57.4,-6.2,27.52,ESE,110,3.1,3.1,7,0.00,,---,0.16,VWS V14.01,2013-03-30 18:14:00,
2013-03-30 14:19:00,57.9,-5.8,27.52,East,98,2.7,3.1,7,0.00,,---,0.16,VWS V14.01,2013-03-30 18:19:00,
2013-03-30 14:24:00,58.8,-5.2,27.52,ESE,122,2.7,2.7,7,0.00,,---,0.16,VWS V14.01,2013-03-30 18:24:00,
2013-03-30 14:29:00,60.3,-4.1,27.52,East,86,3.6,5.4,7,0.00,,---,0.16,VWS V14.01,2013-03-30 18:29:00,
2013-03-30 14:34:00,61.0,-6.7,27.52,ENE,75,3.1,3.1,6,0.00,,---,0.16,VWS V14.01,2013-03-30 18:34:00,
2013-03-30 14:39:00,61.9,-6.1,27.49,East,90,4.0,4.0,6,0.00,,---,0.16,VWS V14.01,2013-03-30 18:39:00,
2013-03-30 14:44:00,62.8,-5.4,27.49,SSE,147,2.7,4.0,6,0.00,,---,0.16,VWS V14.01,2013-03-30 18:44:00,
2013-03-30 14:49:00,63.3,-5.0,27.49,NW,307,3.6,3.6,6,0.00,,---,0.16,VWS V14.01,2013-03-30 18:49:00,
2013-03-30 14:54:00,63.0,-5.3,27.52,SE,133,4.0,4.0,6,0.00,,---,0.16,VWS V14.01,2013-03-30 18:54:00,
2013-03-30 14:59:00,63.5,-4.9,27.52,East,97,3.1,3.6,6,0.00,,---,0.16,VWS V14.01,2013-03-30 18:59:00,
2013-03-30 15:04:00,64.0,-4.5,27.52,NE,42,4.0,5.8,6,0.00,,---,0.16,VWS V14.01,2013-03-30 19:04:00,
2013-03-30 15:09:00,64.0,-4.5,27.49,ENE,62,3.1,3.6,6,0.00,,---,0.16,VWS V14.01,2013-03-30 19:09:00,
2013-03-30 15:14:00,64.0,-4.5,27.49,SSW,198,2.2,2.7,6,0.00,,---,0.16,VWS V14.01,2013-03-30 19:14:00,
2013-03-30 15:19:00,63.3,-5.0,27.49,SW,222,0.0,2.7,6,0.00,,---,0.16,VWS V14.01,2013-03-30 19:19:00,
2013-03-30 15:24:00,62.8,-5.4,27.49,NNW,343,2.7,2.7,6,0.00,,---,0.16,VWS V14.01,2013-03-30 19:24:00,
2013-03-30 15:29:00,61.9,-6.1,27.49,East,99,3.6,3.6,6,0.00,,---,0.16,VWS V14.01,2013-03-30 19:29:00,
2013-03-30 15:33:00,61.5,-6.3,27.49,WNW,291,0.0,2.7,6,0.00,,---,0.16,VWS V14.01,2013-03-30 19:33:00,
2013-03-30 15:38:00,61.7,-6.2,27.49,South,175,0.0,2.7,6,0.00,,---,0.16,VWS V14.01,2013-03-30 19:38:00,
2013-03-30 15:43:00,62.2,-5.8,27.49,ESE,120,3.6,3.6,6,0.00,,---,0.16,VWS V14.01,2013-03-30 19:43:00,
2013-03-30 15:48:00,62.8,-5.4,27.49,ENE,71,6.3,6.3,6,0.00,,---,0.16,VWS V14.01,2013-03-30 19:48:00,
2013-03-30 15:53:00,63.3,-5.0,27.49,SE,130,4.0,4.0,6,0.00,,---,0.16,VWS V14.01,2013-03-30 19:53:00,
2013-03-30 15:58:00,63.9,-4.7,27.49,ENE,69,2.7,3.1,6,0.00,,---,0.16,VWS V14.01,2013-03-30 19:58:00,
2013-03-30 16:03:00,64.0,-4.5,27.49,NNE,20,3.1,4.0,6,0.00,,---,0.16,VWS V14.01,2013-03-30 20:03:00,
2013-03-30 16:08:00,64.8,-7.8,27.49,ESE,114,3.1,3.1,5,0.00,,---,0.16,VWS V14.01,2013-03-30 20:08:00,
2013-03-30 16:13:00,65.1,-7.5,27.49,ESE,107,2.7,3.6,5,0.00,,---,0.16,VWS V14.01,2013-03-30 20:13:00,
2013-03-30 16:18:00,64.9,-7.6,27.49,NE,34,2.7,4.9,5,0.00,,---,0.16,VWS V14.01,2013-03-30 20:18:00,
2013-03-30 16:23:00,64.4,-8.0,27.49,East,91,3.6,4.9,5,0.00,,---,0.16,VWS V14.01,2013-03-30 20:23:00,
2013-03-30 16:28:00,64.4,-8.0,27.49,NE,48,0.0,2.7,5,0.00,,---,0.16,VWS V14.01,2013-03-30 20:28:00,
2013-03-30 16:33:00,64.4,-8.0,27.49,ESE,114,5.4,5.4,5,0.00,,---,0.16,VWS V14.01,2013-03-30 20:33:00,
2013-03-30 16:39:00,64.4,-8.0,27.46,East,84,3.6,4.0,5,0.00,,---,0.16,VWS V14.01,2013-03-30 20:39:00,
2013-03-30 16:44:00,64.4,-8.0,27.46,East,91,3.1,4.0,5,0.00,,---,0.16,VWS V14.01,2013-03-30 20:44:00,
2013-03-30 16:49:00,64.9,-7.6,27.46,East,94,3.1,3.6,5,0.00,,---,0.16,VWS V14.01,2013-03-30 20:49:00,
2013-03-30 16:54:00,64.8,-7.8,27.46,ENE,58,2.2,2.2,5,0.00,,---,0.16,VWS V14.01,2013-03-30 20:54:00,
2013-03-30 16:59:00,64.4,-8.0,27.46,ENE,58,2.2,4.0,5,0.00,,---,0.16,VWS V14.01,2013-03-30 20:59:00,
2013-03-30 17:04:00,64.4,-8.0,27.46,NE,50,2.2,3.1,5,0.00,,---,0.16,VWS V14.01,2013-03-30 21:04:00,
2013-03-30 17:09:00,64.9,-7.6,27.46,ENE,68,2.2,4.0,5,0.00,,---,0.16,VWS V14.01,2013-03-30 21:09:00,
2013-03-30 17:14:00,65.5,-7.2,27.46,SE,125,3.6,4.0,5,0.00,,---,0.16,VWS V14.01,2013-03-30 21:14:00,
2013-03-30 17:19:00,66.7,-6.3,27.46,East,86,4.0,4.0,5,0.00,,---,0.16,VWS V14.01,2013-03-30 21:19:00,
2013-03-30 17:24:00,67.5,-5.8,27.46,ENE,65,3.1,4.9,5,0.00,,---,0.16,VWS V14.01,2013-03-30 21:24:00,
2013-03-30 17:29:00,67.8,-5.6,27.46,SSW,197,3.6,5.4,5,0.00,,---,0.16,VWS V14.01,2013-03-30 21:29:00,
2013-03-30 17:34:00,68.2,-5.3,27.46,East,101,2.7,2.7,5,0.00,,---,0.16,VWS V14.01,2013-03-30 21:34:00,
2013-03-30 17:39:00,68.9,-4.8,27.46,ENE,68,4.0,4.0,5,0.00,,---,0.16,VWS V14.01,2013-03-30 21:39:00,
2013-03-30 17:44:00,69.3,-4.6,27.46,ESE,123,5.4,5.4,5,0.00,,---,0.16,VWS V14.01,2013-03-30 21:44:00,
2013-03-30 17:49:00,68.7,-4.9,27.46,ESE,109,2.7,2.7,5,0.00,,---,0.16,VWS V14.01,2013-03-30 21:49:00,
2013-03-30 17:54:00,66.9,-6.2,27.46,SSE,155,0.0,0.0,5,0.00,,---,0.16,VWS V14.01,2013-03-30 21:54:00,
2013-03-30 17:59:00,65.5,-7.2,27.46,South,190,3.6,4.0,5,0.00,,---,0.16,VWS V14.01,2013-03-30 21:59:00,
2013-03-30 18:04:00,64.4,-8.0,27.46,ESE,110,4.0,4.0,5,0.00,,---,0.16,VWS V14.01,2013-03-30 22:04:00,
2013-03-30 18:08:00,63.5,-4.9,27.46,SSW,200,3.1,3.6,6,0.00,,---,0.16,VWS V14.01,2013-03-30 22:08:00,
2013-03-30 18:13:00,62.6,-5.6,27.46,SE,133,5.4,6.3,6,0.00,,---,0.16,VWS V14.01,2013-03-30 22:13:00,
2013-03-30 18:18:00,61.7,-6.2,27.46,ESE,120,5.8,7.2,6,0.00,,---,0.16,VWS V14.01,2013-03-30 22:18:00,
2013-03-30 18:23:00,61.2,-6.6,27.46,SE,131,5.8,6.3,6,0.00,,---,0.16,VWS V14.01,2013-03-30 22:23:00,
2013-03-30 18:28:00,60.4,-4.0,27.46,South,183,2.7,5.8,7,0.00,,---,0.16,VWS V14.01,2013-03-30 22:28:00,
2013-03-30 18:33:00,60.1,-4.2,27.46,SE,133,2.7,4.9,7,0.00,,---,0.16,VWS V14.01,2013-03-30 22:33:00,
2013-03-30 18:38:00,59.7,-4.5,27.46,WSW,253,5.4,5.4,7,0.00,,---,0.16,VWS V14.01,2013-03-30 22:38:00,
2013-03-30 18:43:00,59.4,-4.8,27.46,South,187,2.7,5.4,7,0.00,,---,0.16,VWS V14.01,2013-03-30 22:43:00,
2013-03-30 18:48:00,59.0,-5.0,27.46,SE,136,4.0,5.8,7,0.00,,---,0.16,VWS V14.01,2013-03-30 22:48:00,
2013-03-30 18:53:00,58.8,-5.2,27.46,SSE,156,2.2,3.6,7,0.00,,---,0.16,VWS V14.01,2013-03-30 22:53:00,
2013-03-30 18:58:00,58.8,-5.2,27.46,SSE,158,6.3,6.3,7,0.00,,---,0.16,VWS V14.01,2013-03-30 22:58:00,
2013-03-30 19:03:00,58.5,-5.4,27.46,South,176,2.7,3.6,7,0.00,,---,0.16,VWS V14.01,2013-03-30 23:03:00,
2013-03-30 19:08:00,58.3,-5.6,27.46,SE,143,3.6,3.6,7,0.00,,---,0.16,VWS V14.01,2013-03-30 23:08:00,
2013-03-30 19:13:00,58.1,-5.7,27.46,SSE,154,2.7,4.0,7,0.00,,---,0.16,VWS V14.01,2013-03-30 23:13:00,
2013-03-30 19:18:00,57.9,-5.8,27.46,South,171,3.1,4.0,7,0.00,,---,0.16,VWS V14.01,2013-03-30 23:18:00,
2013-03-30 19:23:00,57.7,-5.9,27.46,SSE,161,2.2,3.1,7,0.00,,---,0.16,VWS V14.01,2013-03-30 23:23:00,
2013-03-30 19:28:00,57.4,-6.2,27.46,SW,229,2.7,3.6,7,0.00,,---,0.16,VWS V14.01,2013-03-30 23:28:00,
2013-03-30 19:33:00,57.0,-6.5,27.46,SW,218,2.7,2.7,7,0.00,,---,0.16,VWS V14.01,2013-03-30 23:33:00,
2013-03-30 19:38:00,56.7,-6.8,27.46,SSE,159,3.6,3.6,7,0.00,,---,0.16,VWS V14.01,2013-03-30 23:38:00,
2013-03-30 19:43:00,56.5,-6.9,27.46,SW,232,3.6,4.9,7,0.00,,---,0.16,VWS V14.01,2013-03-30 23:43:00,
2013-03-30 19:48:00,56.1,-7.2,27.46,SW,220,3.1,3.1,7,0.00,,---,0.16,VWS V14.01,2013-03-30 23:48:00,
2013-03-30 19:53:00,55.6,-7.6,27.46,SSE,160,3.6,4.0,7,0.00,,---,0.16,VWS V14.01,2013-03-30 23:53:00,
2013-03-30 19:58:00,55.2,-5.1,27.46,SE,124,4.0,4.9,8,0.00,,---,0.16,VWS V14.01,2013-03-30 23:58:00,
2013-03-30 20:03:00,55.0,-5.2,27.46,SW,222,0.0,2.7,8,0.00,,---,0.16,VWS V14.01,2013-03-31 00:03:00,
2013-03-30 20:08:00,54.7,-5.5,27.46,WSW,256,3.1,4.0,8,0.00,,---,0.16,VWS V14.01,2013-03-31 00:08:00,
2013-03-30 20:13:00,54.5,-5.6,27.46,West,262,3.6,3.6,8,0.00,,---,0.16,VWS V14.01,2013-03-31 00:13:00,
2013-03-30 20:18:00,54.5,-5.6,27.46,SW,236,3.1,3.1,8,0.00,,---,0.16,VWS V14.01,2013-03-31 00:18:00,
2013-03-30 20:23:00,54.1,-5.9,27.46,SW,218,0.0,2.7,8,0.00,,---,0.16,VWS V14.01,2013-03-31 00:23:00,
2013-03-30 20:28:00,54.1,-5.9,27.46,SW,225,3.1,4.0,8,0.00,,---,0.16,VWS V14.01,2013-03-31 00:28:00,
2013-03-30 20:33:00,54.0,-6.0,27.46,SW,220,2.7,2.7,8,0.00,,---,0.16,VWS V14.01,2013-03-31 00:33:00,
2013-03-30 20:38:00,53.8,-6.2,27.46,ESE,111,0.0,0.0,8,0.00,,---,0.16,VWS V14.01,2013-03-31 00:38:00,
2013-03-30 20:43:00,53.6,-6.3,27.46,SE,136,0.0,0.0,8,0.00,,---,0.16,VWS V14.01,2013-03-31 00:43:00,
2013-03-30 20:48:00,53.4,-6.4,27.46,SE,140,0.0,0.0,8,0.00,,---,0.16,VWS V14.01,2013-03-31 00:48:00,
2013-03-30 20:53:00,53.4,-6.4,27.46,SE,144,0.0,0.0,8,0.00,,---,0.16,VWS V14.01,2013-03-31 00:53:00,
2013-03-30 20:58:00,53.2,-6.6,27.46,SSE,157,0.0,0.0,8,0.00,,---,0.16,VWS V14.01,2013-03-31 00:58:00,
2013-03-30 21:03:00,53.1,-6.7,27.46,SSE,157,0.0,0.0,8,0.00,,---,0.16,VWS V14.01,2013-03-31 01:03:00,
2013-03-30 21:08:00,52.9,-6.8,27.46,SSE,155,0.0,0.0,8,0.00,,---,0.16,VWS V14.01,2013-03-31 01:08:00,
2013-03-30 21:13:00,52.7,-7.0,27.46,SSE,155,0.0,0.0,8,0.00,,---,0.16,VWS V14.01,2013-03-31 01:13:00,
2013-03-30 21:18:00,52.5,-7.1,27.46,West,259,2.2,3.6,8,0.00,,---,0.16,VWS V14.01,2013-03-31 01:18:00,
2013-03-30 21:23:00,52.3,-7.2,27.46,WSW,257,0.0,0.0,8,0.00,,---,0.16,VWS V14.01,2013-03-31 01:23:00,
2013-03-30 21:28:00,52.0,-7.5,27.46,SW,221,2.2,4.0,8,0.00,,---,0.16,VWS V14.01,2013-03-31 01:28:00,
2013-03-30 21:33:00,51.6,-5.4,27.46,SW,216,0.0,2.7,9,0.00,,---,0.16,VWS V14.01,2013-03-31 01:33:00,
2013-03-30 21:38:00,51.4,-5.5,27.46,SW,215,2.7,2.7,9,0.00,,---,0.16,VWS V14.01,2013-03-31 01:38:00,
2013-03-30 21:43:00,51.1,-5.8,27.46,SW,236,0.0,0.0,9,0.00,,---,0.16,VWS V14.01,2013-03-31 01:43:00,
2013-03-30 21:48:00,50.9,-5.9,27.46,SW,234,0.0,0.0,9,0.00,,---,0.16,VWS V14.01,2013-03-31 01:48:00,
2013-03-30 21:53:00,51.1,-5.8,27.46,SW,234,2.2,2.2,9,0.00,,---,0.16,VWS V14.01,2013-03-31 01:53:00,
2013-03-30 21:58:00,51.1,-5.8,27.46,SW,234,0.0,0.0,9,0.00,,---,0.16,VWS V14.01,2013-03-31 01:58:00,
2013-03-30 22:03:00,51.1,-5.8,27.46,SW,234,0.0,0.0,9,0.00,,---,0.16,VWS V14.01,2013-03-31 02:03:00,
2013-03-30 22:08:00,51.1,-5.8,27.46,SW,234,0.0,0.0,9,0.00,,---,0.16,VWS V14.01,2013-03-31 02:08:00,
2013-03-30 22:13:00,51.4,-5.5,27.46,SW,234,0.0,0.0,9,0.00,,---,0.16,VWS V14.01,2013-03-31 02:13:00,
2013-03-30 22:18:00,51.6,-5.4,27.46,SSE,168,0.0,3.6,9,0.00,,---,0.16,VWS V14.01,2013-03-31 02:18:00,
2013-03-30 22:23:00,51.6,-5.4,27.46,SSW,211,0.0,0.0,9,0.00,,---,0.16,VWS V14.01,2013-03-31 02:23:00,
2013-03-30 22:28:00,51.6,-5.4,27.46,SSW,208,0.0,0.0,9,0.00,,---,0.16,VWS V14.01,2013-03-31 02:28:00,
2013-03-30 22:33:00,51.6,-5.4,27.46,SSW,194,2.7,2.7,9,0.00,,---,0.16,VWS V14.01,2013-03-31 02:33:00,
2013-03-30 22:38:00,51.6,-5.4,27.46,SW,226,3.1,3.1,9,0.00,,---,0.16,VWS V14.01,2013-03-31 02:38:00,
2013-03-30 22:43:00,51.4,-5.5,27.46,SW,229,2.2,2.2,9,0.00,,---,0.16,VWS V14.01,2013-03-31 02:43:00,
2013-03-30 22:48:00,51.4,-5.5,27.46,SW,219,0.0,2.2,9,0.00,,---,0.16,VWS V14.01,2013-03-31 02:48:00,
2013-03-30 22:53:00,51.4,-5.5,27.46,SW,216,0.0,2.2,9,0.00,,---,0.16,VWS V14.01,2013-03-31 02:53:00,
2013-03-30 22:58:00,51.4,-5.5,27.46,SW,216,0.0,0.0,9,0.00,,---,0.16,VWS V14.01,2013-03-31 02:58:00,
2013-03-30 23:03:00,51.4,-5.5,27.46,SW,216,0.0,0.0,9,0.00,,---,0.16,VWS V14.01,2013-03-31 03:03:00,
2013-03-30 23:08:00,51.6,-5.4,27.46,ESE,110,0.0,2.7,9,0.00,,---,0.16,VWS V14.01,2013-03-31 03:08:00,
2013-03-30 23:13:00,51.8,-7.7,27.46,SE,136,0.0,0.0,8,0.00,,---,0.16,VWS V14.01,2013-03-31 03:13:00,
2013-03-30 23:18:00,51.8,-7.7,27.46,South,189,2.7,2.7,8,0.00,,---,0.16,VWS V14.01,2013-03-31 03:18:00,
2013-03-30 23:23:00,52.0,-7.5,27.46,SSW,203,0.0,2.2,8,0.00,,---,0.16,VWS V14.01,2013-03-31 03:23:00,
2013-03-30 23:28:00,52.0,-7.5,27.46,WSW,245,0.0,0.0,8,0.00,,---,0.16,VWS V14.01,2013-03-31 03:28:00,
2013-03-30 23:33:00,52.2,-7.4,27.46,SSE,167,2.2,3.1,8,0.00,,---,0.16,VWS V14.01,2013-03-31 03:33:00,
2013-03-30 23:38:00,52.2,-7.4,27.43,SSW,200,0.0,0.0,8,0.00,,---,0.16,VWS V14.01,2013-03-31 03:38:00,
2013-03-30 23:43:00,52.2,-7.4,27.43,SSW,200,0.0,0.0,8,0.00,,---,0.16,VWS V14.01,2013-03-31 03:43:00,
2013-03-30 23:48:00,52.0,-7.5,27.43,SSW,200,0.0,0.0,8,0.00,,---,0.16,VWS V14.01,2013-03-31 03:48:00,
2013-03-30 23:53:00,51.8,-7.7,27.46,NE,50,0.0,0.0,8,0.00,,---,0.16,VWS V14.01,2013-03-31 03:53:00,
2013-03-30 23:58:00,52.0,-7.5,27.46,SE,142,0.0,0.0,8,0.00,,---,0.16,VWS V14.01,2013-03-31 03:58:00,